Temp
28 30 30 29 30 30 30 30 30 31 31 29 30 30 30 28 28 28 28 28 28 28 28 27 26 25 25 24 22 22 21 21 21 21 21 21 21 21 22 22 22 23 23 23
30 29 29 29 30 30 31 29 30 30 31 30 31 30 31 29 29 29 29 29 29 29 29 27 26 25 25 24 23 22 22 22 22 21 21 22 22 22 22 22 22 23 23 23
29 29 28 29 30 30 30 30 29 29 31 31 31 31 29 29 29 29 30 30 29 29 29 28 27 26 26 25 23 23 23 22 23 22 21 21 21 22 22 22 23 23 23 24
29 28 28 29 29 29 29 30 30 30 30 31 31 31 31 31 30 29 30 30 30 29 29 29 27 26 26 25 25 24 23 23 22 22 22 22 24 24 24 23 23 23 24 24
26 27 28 28 27 28 28 28 29 29 30 30 31 31 33 29 30 30 30 30 30 30 30 30 28 27 26 26 25 24 23 23 23 22 22 23 24 24 24 24 23 23 23 24
25 26 27 27 27 27 27 28 28 27 30 29 31 31 33 33 33 33 32 31 31 31 31 30 29 28 27 26 25 24 23 23 23 23 22 22 23 24 24 24 24 24 24 24
26 26 26 26 28 28 28 29 29 29 29 30 29 30 32 33 32 32 33 33 32 31 31 30 30 28 27 26 25 25 23 23 22 22 22 22 23 23 23 23 24 24 24 24
25 26 26 26 26 26 26 26 27 26 28 30 27 29 32 32 32 31 31 31 32 33 32 31 31 29 27 26 25 25 23 23 23 22 23 22 23 24 24 24 24 24 25 25
24 25 24 25 25 25 26 26 25 26 24 26 29 30 31 32 30 29 29 29 29 29 31 32 31 29 28 27 26 25 24 23 23 23 23 22 22 23 24 24 25 24 24 25
23 24 23 24 25 25 26 25 26 25 25 26 28 26 30 28 27 27 27 27 27 27 29 30 32 30 28 27 27 25 25 24 24 24 23 23 23 23 23 24 25 24 24 26
23 23 24 23 24 24 24 25 24 24 24 26 26 28 28 26 26 26 27 27 27 27 27 28 32 30 29 28 27 26 26 25 24 23 23 23 23 23 23 24 24 25 25 25
21 23 23 23 23 21 23 23 24 24 24 24 24 26 30 27 27 27 27 26 26 26 27 26 31 31 29 28 27 27 26 25 24 24 23 23 23 23 23 23 24 24 25 26
22 21 22 23 23 23 23 23 23 22 22 23 24 26 28 27 27 26 26 26 24 24 25 26 29 30 29 28 27 27 26 25 25 24 23 24 24 24 24 24 24 24 24 25
21 21 22 23 24 22 22 22 22 22 23 24 24 25 26 26 25 25 26 24 23 23 24 24 24 29 27 27 26 26 25 26 25 24 24 24 24 24 24 24 24 24 24 24
21 21 20 22 21 22 21 21 22 22 23 22 24 24 25 25 24 24 23 23 22 21 22 21 22 25 26 25 25 25 25 25 25 24 24 24 24 24 24 24 24 24 24 24
18 20 18 19 21 21 20 21 21 22 22 22 22 22 25 25 23 23 23 22 21 21 20 20 20 22 25 25 24 23 24 24 25 24 23 24 23 23 23 23 23 23 23 24
19 19 18 20 19 19 19 20 22 23 23 23 22 24 25 23 22 22 22 21 21 21 20 19 18 19 21 23 23 24 24 24 24 23 23 23 23 22 22 23 23 23 23 23
17 17 18 19 18 19 22 21 22 22 23 23 22 23 23 23 22 22 22 21 20 21 20 19 18 18 18 19 21 23 23 23 22 23 23 22 22 23 22 22 22 23 23 23
17 17 19 18 19 20 20 22 20 20 21 21 19 20 21 22 21 23 21 19 18 18 19 18 18 17 18 18 20 21 22 22 22 23 23 23 23 22 22 22 22 22 22 22
16 15 18 18 17 18 20 19 18 18 18 19 18 18 18 18 19 21 19 18 16 15 17 17 18 18 17 17 19 20 22 21 21 21 21 22 22 21 22 22 21 21 21 21
18 17 17 18 17 19 20 18 17 17 18 17 18 17 16 15 17 18 18 18 17 14 15 16 17 17 17 17 18 18 18 17 17 18 19 20 20 20 20 20 19 19 19 19
17 17 18 16 16 17 18 18 17 17 16 17 17 17 16 16 15 16 17 17 16 15 15 16 15 15 15 17 17 17 16 16 17 18 18 18 17 17 18 19 19 19 19 19
16 17 18 17 18 19 17 16 16 15 15 15 15 16 16 16 15 17 17 15 16 14 14 15 15 13 13 14 16 17 16 17 16 17 17 17 17 17 17 18 18 18 17 18
16 15 15 16 18 18 17 16 16 15 15 15 15 16 16 16 16 16 15 15 14 13 12 13 13 12 12 13 14 15 16 16 16 17 17 17 17 17 17 17 18 18 18 17
17 15 16 16 17 16 16 16 15 14 14 15 16 15 16 16 15 14 13 13 12 11 10 11 11 11 11 11 12 14 15 15 16 16 17 17 17 16 16 17 18 18 18 18
15 17 16 17 17 15 15 15 13 12 13 14 14 14 14 14 13 12 12 11 11 10 9 10 10 10 10 12 13 14 14 15 15 15 14 15 15 15 15 15 16 16 17 17
Height
792 796 806 804 798 797 802 808 809 798 790 797 794 791 787 790 791 794 796 800 801 802 805 812 816 820 824 828 832 834 838 841 844 847 850 852 854 856 857 859 861 864 867 869
798 807 801 799 799 801 802 812 809 799 791 796 790 792 779 783 786 785 789 792 795 799 802 806 811 816 819 822 826 830 833 837 840 844 846 849 851 853 855 858 860 863 866 868
804 805 800 801 803 805 807 810 811 813 797 790 791 792 789 782 782 784 783 785 788 789 794 800 804 809 812 817 821 824 827 832 835 840 844 846 849 851 853 855 858 861 864 866
805 805 805 805 808 806 816 802 805 804 805 811 791 811 789 780 782 781 780 781 782 783 786 791 797 801 806 809 813 818 822 826 831 835 839 842 844 847 849 852 855 858 861 864
819 812 811 813 815 808 813 803 806 804 805 807 797 806 785 784 784 778 772 770 771 774 779 782 786 790 795 803 808 812 816 821 826 830 834 837 841 843 846 850 852 855 858 861
816 809 809 813 808 808 807 805 807 810 805 816 796 800 785 781 772 765 764 766 766 767 770 775 781 787 791 796 801 806 811 814 820 825 829 832 836 840 843 846 849 852 854 857
820 819 813 811 811 804 806 809 821 822 820 810 799 802 783 768 767 765 763 759 757 758 760 765 771 776 781 786 792 799 804 808 814 819 824 827 831 835 838 842 845 847 850 852
832 835 821 814 818 822 820 820 827 841 824 809 806 802 778 764 764 767 765 761 756 751 754 755 756 762 770 777 782 788 794 801 806 812 817 821 826 830 834 837 840 842 845 847
835 832 820 817 816 818 821 826 824 825 833 829 801 786 771 763 766 768 766 764 763 759 750 747 751 754 758 766 772 778 784 791 798 803 810 815 820 825 828 831 834 838 840 843
832 838 827 821 816 817 818 819 827 828 839 835 807 810 788 781 782 774 769 765 763 759 751 744 739 745 750 755 761 770 776 780 787 795 801 807 812 817 822 826 828 832 835 837
828 834 831 827 826 828 824 824 827 826 829 827 825 800 779 787 784 780 771 769 763 756 748 741 729 735 744 751 758 762 769 774 781 788 794 800 805 810 815 819 822 826 830 833
835 833 838 831 825 829 824 827 824 829 834 826 829 803 767 779 776 776 770 765 760 756 747 741 726 729 736 741 748 752 758 765 770 777 783 789 796 803 808 811 815 819 823 826
830 839 843 832 831 826 826 825 826 831 834 829 829 796 772 773 771 769 769 763 764 755 746 739 729 726 730 737 742 746 752 757 763 769 776 783 788 794 799 804 809 813 816 820
829 834 833 833 826 827 834 829 826 829 831 818 806 793 787 785 784 777 770 765 764 757 750 744 737 728 730 733 738 744 750 755 758 763 769 774 779 783 789 795 800 805 810 813
830 837 835 829 828 827 829 829 827 827 819 821 801 793 786 784 784 779 774 768 765 760 753 748 742 735 732 733 737 741 744 749 756 760 763 765 769 776 783 788 792 797 802 806
837 836 841 836 827 826 827 821 820 816 813 808 805 793 780 777 780 777 773 769 766 760 756 751 745 738 732 733 734 739 741 743 748 754 757 761 766 770 772 778 783 789 794 798
835 834 839 833 832 831 832 816 808 802 796 798 800 782 775 779 779 777 772 769 766 759 756 752 748 742 736 732 731 732 735 743 747 746 753 758 760 764 768 772 779 782 785 790
839 839 839 831 832 831 803 800 801 799 792 788 788 783 778 777 777 773 769 767 765 760 755 752 747 741 736 733 731 729 732 739 740 742 748 753 757 759 763 768 772 776 780 782
839 837 834 834 829 813 808 796 803 804 796 793 796 788 779 774 775 768 766 770 769 763 756 752 748 742 737 733 729 731 731 738 739 734 743 750 752 753 756 761 765 768 772 774
841 842 834 836 836 825 805 803 804 805 805 798 798 795 791 785 779 769 770 770 767 761 757 751 746 743 736 732 727 731 733 733 732 735 735 742 744 745 750 755 760 764 766 769
833 835 834 828 832 814 803 806 806 811 802 799 796 792 793 795 784 773 771 766 766 764 757 750 744 740 737 732 726 726 730 734 733 736 738 740 738 744 740 753 754 757 762 765
835 834 830 836 834 822 806 804 809 801 799 800 797 791 786 782 781 774 768 765 762 757 748 747 743 738 737 734 731 727 729 732 734 729 733 735 743 748 748 751 758 751 759 762
839 829 827 830 817 803 808 808 805 804 802 796 792 786 782 777 774 768 765 763 759 749 743 738 739 733 733 734 732 730 734 737 738 738 736 741 745 750 748 750 751 759 758 758
827 830 829 826 807 806 803 802 799 798 796 790 786 780 776 771 768 765 764 761 751 744 753 752 730 731 729 737 738 736 737 739 740 743 744 741 742 739 744 752 759 762 753 758
820 826 818 815 808 805 799 798 796 794 791 784 778 775 768 765 764 765 764 761 748 759 758 751 736 741 741 743 742 742 740 740 740 741 746 745 742 745 745 754 758 760 753 754
818 811 813 807 802 806 800 797 795 792 786 782 777 773 767 767 763 763 763 764 754 767 764 748 746 745 742 741 742 743 743 743 741 742 744 747 746 748 750 755 755 755 754 755
Wind_Speed
3 2 4 4 3 2 2 1 6 5 3 3 10 16 11 13 15 15 17 17 17 18 21 22 23 23 21 20 20 22 21 20 18 17 16 14 14 12 11 12 13 13 12 11
3 4 3 0 1 1 3 1 2 4 2 4 10 14 12 15 20 20 20 20 20 18 17 22 23 24 25 25 25 23 23 23 24 18 17 14 15 13 12 11 14 15 15 14
5 5 0 3 3 2 2 4 2 4 7 4 7 5 3 6 14 17 19 19 20 21 21 19 25 27 27 27 26 27 28 26 26 22 16 13 11 8 11 11 12 15 17 16
5 2 0 3 4 3 4 2 7 9 7 4 4 5 4 6 13 18 20 20 21 22 20 19 25 28 29 30 29 29 30 30 27 25 20 21 18 16 15 14 13 13 17 17
4 8 8 7 4 3 2 11 8 8 7 4 6 5 2 2 8 16 19 23 23 23 23 23 27 32 34 31 30 30 31 30 27 28 25 23 19 18 15 15 15 16 16 18
4 1 6 4 2 2 8 3 1 2 4 10 11 8 8 6 7 6 14 17 21 23 24 24 29 30 30 31 31 29 29 34 31 30 29 26 23 19 16 16 17 17 18 18
2 5 2 3 1 1 10 3 3 4 7 12 4 6 9 4 2 5 12 12 17 22 23 23 24 30 32 34 33 31 31 31 30 30 29 29 28 25 21 19 18 17 17 17
0 4 4 6 4 4 5 3 2 4 4 4 1 6 2 1 7 11 13 13 15 13 18 24 26 33 34 36 36 36 34 34 33 32 33 33 31 28 25 22 19 18 18 18
1 1 3 1 4 2 2 2 3 4 0 5 5 6 9 2 10 18 19 18 18 18 15 21 26 35 35 36 38 38 36 37 36 36 35 33 33 31 27 24 23 19 19 18
2 4 2 4 1 3 3 2 4 3 3 5 4 5 7 9 17 20 23 24 22 20 17 19 20 31 36 39 39 38 39 39 40 39 36 35 36 35 32 29 28 23 20 20
2 2 2 3 1 5 1 3 1 1 3 4 5 4 2 9 14 19 22 21 21 23 21 21 17 30 34 34 35 38 38 37 36 35 35 34 33 34 34 31 29 29 26 24
2 1 3 3 4 4 2 4 3 2 4 3 4 8 11 11 17 17 22 22 24 22 21 21 16 23 29 34 35 38 37 36 37 38 38 37 35 33 32 32 30 29 30 27
4 1 2 3 4 3 3 3 3 1 2 10 7 5 5 22 24 27 24 23 21 23 21 19 16 15 24 29 32 34 34 37 36 36 36 35 35 33 33 33 32 29 28 27
3 3 8 7 3 0 7 7 5 6 6 12 17 25 19 18 18 21 22 23 21 20 18 16 15 14 20 26 28 27 28 32 33 35 35 34 36 36 35 34 32 32 30 27
1 6 7 10 10 11 13 13 13 15 18 15 18 25 22 19 16 17 18 18 19 19 18 15 14 12 14 20 22 25 27 28 28 29 31 34 35 33 32 31 32 32 31 31
0 5 2 6 10 13 16 13 14 17 19 22 23 30 23 15 11 14 15 16 17 16 14 14 15 13 9 18 22 25 27 28 27 27 31 30 28 29 33 33 32 30 32 33
3 3 3 4 2 5 10 19 20 17 15 15 17 20 14 12 11 11 16 15 17 17 14 11 12 12 14 9 19 26 24 23 24 27 26 26 27 28 29 29 28 30 31 30
4 3 2 4 4 8 4 4 9 14 18 16 17 19 18 15 12 13 16 17 16 16 14 11 10 14 11 8 9 14 19 26 24 24 22 24 25 25 24 25 26 27 26 27
1 2 2 4 6 14 16 11 4 5 12 10 14 18 18 16 15 15 5 9 13 17 16 15 15 13 10 8 6 10 16 18 21 19 22 24 25 22 22 22 26 25 24 24
3 0 4 3 7 9 4 3 3 3 11 10 16 16 17 18 12 9 7 12 15 21 24 18 17 13 8 4 9 14 14 15 11 12 20 27 25 20 19 20 19 20 21 19
3 2 6 7 7 8 7 5 3 9 4 20 15 17 15 12 11 18 17 18 19 17 26 20 10 9 7 7 9 15 16 13 17 21 21 14 11 12 13 16 15 14 16 16
3 3 3 1 4 7 2 8 6 13 21 15 17 19 20 15 15 18 16 17 15 18 23 19 5 3 3 4 14 18 16 13 17 23 24 23 18 13 5 17 19 15 14 14
4 5 5 5 6 12 11 15 16 13 17 17 15 17 17 18 16 16 13 11 13 21 25 6 9 14 17 11 6 13 11 17 14 15 24 26 21 13 11 1 7 15 19 20
5 5 4 3 8 13 18 16 12 11 13 17 16 18 18 17 15 10 6 7 10 23 24 19 17 18 23 16 13 12 8 11 10 8 9 14 17 25 18 6 9 17 15 14
3 4 5 9 14 11 10 10 9 12 15 16 16 17 17 13 5 4 4 7 16 19 25 20 21 17 19 18 16 15 13 9 10 8 4 7 11 14 15 15 16 18 14 15
5 5 4 7 8 8 13 12 14 13 11 13 14 7 11 6 6 7 8 12 23 13 19 19 21 24 25 29 30 25 19 17 22 22 20 18 19 16 11 12 14 9 6 5
Wind_Direction
35 154 124 79 47 67 99 352 329 331 9 265 266 271 263 199 204 200 199 203 208 206 208 211 207 209 206 204 200 200 201 206 201 203 205 213 221 222 220 216 217 219 216 213
132 127 138 97 69 75 52 24 321 292 323 284 293 275 275 208 206 205 204 207 208 212 212 209 208 205 207 207 206 204 206 207 209 205 202 206 209 218 215 212 215 215 217 211
157 112 210 161 98 348 36 295 323 281 319 214 287 274 248 234 223 218 220 218 215 213 212 211 204 205 208 209 208 208 209 211 210 207 200 201 200 209 204 208 208 212 215 216
85 27 53 72 76 15 300 341 308 288 319 285 358 298 239 218 224 219 223 221 223 218 215 213 208 205 208 212 210 210 211 212 213 209 200 198 199 204 211 209 213 212 218 219
49 55 59 72 356 295 335 316 279 278 270 295 255 244 241 189 240 231 228 225 226 223 220 216 210 206 207 211 209 210 209 211 209 209 204 202 206 209 212 213 213 216 222 226
65 339 40 353 305 337 319 280 251 209 241 250 247 242 237 230 241 270 242 238 235 232 225 223 216 213 213 208 209 209 205 210 209 210 210 208 207 208 208 208 212 214 219 224
29 41 341 11 42 26 2 342 254 221 213 248 145 253 261 236 291 319 328 288 252 236 228 223 215 209 208 204 205 204 203 206 207 210 211 214 216 213 211 212 215 211 213 216
28 173 23 3 25 322 342 335 338 269 266 309 171 244 172 158 2 27 5 352 338 290 241 228 218 209 204 205 201 198 200 204 206 209 212 215 219 217 216 219 217 218 219 221
314 218 325 13 348 282 80 195 357 281 230 270 249 267 270 356 16 3 359 359 355 340 311 247 230 217 207 203 202 200 197 202 204 208 212 215 217 217 217 217 224 227 229 227
121 291 45 328 186 88 329 8 221 189 256 246 233 269 247 8 358 351 350 345 342 334 319 309 239 221 212 207 202 203 203 199 203 207 209 212 215 218 219 222 225 224 230 233
121 247 148 264 27 307 211 171 137 292 275 272 285 243 146 30 356 338 334 333 333 332 329 319 266 224 215 210 206 205 206 203 203 202 206 208 213 216 219 221 223 227 231 231
60 245 266 290 325 292 234 94 65 257 189 252 289 261 299 339 338 337 330 330 330 329 328 327 290 224 210 209 206 205 204 204 201 203 204 207 211 214 216 219 222 223 227 230
171 187 266 232 150 178 207 135 84 74 255 249 262 248 334 334 334 332 328 327 328 327 330 332 304 221 209 207 205 205 202 205 205 201 203 208 210 212 216 218 219 221 224 229
174 206 238 253 315 30 250 249 245 261 256 263 250 279 291 300 316 315 317 322 326 323 325 329 320 237 206 205 204 203 210 212 206 203 205 206 209 212 214 215 216 219 222 226
250 253 231 250 263 267 265 261 262 250 250 257 279 282 288 298 302 303 308 314 322 324 324 326 319 296 221 200 206 206 207 209 212 210 208 208 208 210 214 215 217 220 221 227
120 262 218 263 249 255 261 258 245 250 255 258 266 272 286 292 292 303 309 314 315 314 319 327 322 298 242 200 199 202 210 204 203 207 211 212 210 209 209 212 214 216 220 222
211 221 210 259 334 271 260 240 249 261 261 257 267 283 308 286 308 305 304 309 310 309 316 315 307 298 295 229 203 205 202 206 206 202 213 210 208 208 211 213 216 216 219 220
173 199 227 280 282 251 36 317 269 273 273 276 283 287 289 288 298 301 280 297 305 308 305 314 305 306 302 273 240 214 200 198 200 204 209 212 212 215 211 209 213 220 224 223
303 175 247 270 263 297 286 277 280 267 288 334 331 334 326 302 298 292 344 346 334 320 295 286 281 308 295 280 246 221 202 200 200 198 206 213 213 207 206 213 215 218 223 221
111 274 262 252 277 277 18 198 302 260 269 2 339 332 322 326 302 307 331 323 318 350 314 287 274 284 311 306 223 217 201 190 178 187 200 222 214 212 204 217 219 210 212 215
256 256 263 266 269 274 283 327 300 252 337 336 330 316 321 303 301 307 309 306 301 318 340 300 262 250 295 3 141 132 135 133 136 134 143 156 145 174 166 176 169 166 159 156
268 279 272 236 276 285 51 304 274 327 316 317 307 297 301 295 287 294 302 305 312 319 303 299 240 90 357 115 100 103 105 126 119 113 109 101 93 83 108 146 157 156 163 168
245 217 281 230 256 295 296 283 291 303 303 306 304 291 295 293 292 295 312 330 337 7 333 212 178 96 55 37 95 107 120 130 132 125 129 127 121 95 66 9 185 208 190 185
230 200 237 270 266 302 306 309 307 306 295 298 292 291 291 284 295 286 328 357 25 21 350 316 91 64 62 44 56 79 152 173 159 153 160 160 157 144 135 135 235 225 195 204
283 179 245 262 281 290 260 310 324 311 303 299 302 299 286 281 115 106 31 39 58 28 340 287 67 66 64 53 56 69 74 114 124 118 155 139 142 164 167 191 205 219 202 208
196 215 218 284 297 269 285 307 320 309 314 317 304 359 48 55 141 84 49 47 73 34 338 10 40 52 42 50 52 60 67 86 90 80 71 77 83 92 98 116 114 114 95 140